TimeEEST,TemperatureF,Dew PointF,Humidity,Sea Level PressureIn,VisibilityMPH,Wind Direction,Wind SpeedMPH,Gust SpeedMPH,PrecipitationIn,Events,Conditions,WindDirDegrees,DateUTC
12:20 AM,60.8,59.0,94,30.09,-9999.0,NE,9.2,-,N/A,,Clear,40,2012-10-06 21:20:00
12:50 AM,60.8,59.0,94,30.09,-9999.0,NE,8.1,-,N/A,,Clear,40,2012-10-06 21:50:00
1:20 AM,60.8,59.0,94,30.09,-9999.0,NE,8.1,-,N/A,,Clear,50,2012-10-06 22:20:00
1:50 AM,60.8,59.0,94,30.09,-9999.0,NE,8.1,-,N/A,,Clear,50,2012-10-06 22:50:00
2:20 AM,59.0,59.0,100,30.09,-9999.0,NE,8.1,-,N/A,,Clear,40,2012-10-06 23:20:00
3:20 AM,60.8,59.0,94,30.06,-9999.0,NE,11.5,-,N/A,,Clear,40,2012-10-07 00:20:00
3:50 AM,60.8,59.0,94,30.06,-9999.0,NE,10.4,-,N/A,,Clear,50,2012-10-07 00:50:00
4:20 AM,60.8,59.0,94,30.06,-9999.0,NNE,9.2,-,N/A,,Clear,30,2012-10-07 01:20:00
4:50 AM,60.8,59.0,94,30.06,-9999.0,NNE,9.2,-,N/A,,Clear,20,2012-10-07 01:50:00
5:20 AM,60.8,59.0,94,30.04,-9999.0,NNE,10.4,-,N/A,,Clear,20,2012-10-07 02:20:00
5:50 AM,59.0,59.0,100,30.04,-9999.0,North,9.2,-,N/A,,Clear,360,2012-10-07 02:50:00
6:20 AM,59.0,59.0,100,30.04,-9999.0,NNE,9.2,-,N/A,,Clear,20,2012-10-07 03:20:00
6:50 AM,59.0,57.2,94,30.04,-9999.0,NNE,8.1,-,N/A,,Clear,20,2012-10-07 03:50:00
7:20 AM,59.0,59.0,100,30.04,-9999.0,North,8.1,-,N/A,,Clear,10,2012-10-07 04:20:00
7:50 AM,60.8,59.0,94,30.04,-9999.0,NNE,6.9,-,N/A,,Clear,20,2012-10-07 04:50:00
8:20 AM,62.6,60.8,94,30.04,-9999.0,NNE,6.9,-,N/A,,Clear,30,2012-10-07 05:20:00
8:50 AM,64.4,60.8,88,30.04,-9999.0,NE,6.9,-,N/A,,Clear,40,2012-10-07 05:50:00
9:20 AM,66.2,62.6,88,30.04,-9999.0,ENE,8.1,-,N/A,,Clear,60,2012-10-07 06:20:00
9:50 AM,68.0,62.6,83,30.04,-9999.0,ENE,6.9,-,N/A,,Clear,60,2012-10-07 06:50:00
10:20 AM,69.8,60.8,73,30.04,-9999.0,ENE,5.8,-,N/A,,Clear,70,2012-10-07 07:20:00
10:50 AM,71.6,57.2,60,30.04,-9999.0,Variable,3.5,-,N/A,,Clear,0,2012-10-07 07:50:00
11:20 AM,73.4,57.2,57,30.04,-9999.0,Variable,2.3,-,N/A,,Clear,0,2012-10-07 08:20:00
11:50 AM,75.2,57.2,53,30.01,6.2,Variable,2.3,-,N/A,,Partly Cloudy,0,2012-10-07 08:50:00
12:20 PM,75.2,57.2,53,30.01,6.2,WNW,4.6,-,N/A,,Partly Cloudy,300,2012-10-07 09:20:00
12:50 PM,77.0,55.4,47,30.01,6.2,Variable,3.5,-,N/A,,Partly Cloudy,0,2012-10-07 09:50:00
1:20 PM,77.0,55.4,47,29.98,6.2,Variable,3.5,-,N/A,,Partly Cloudy,0,2012-10-07 10:20:00
1:50 PM,77.0,62.6,61,29.98,6.2,Variable,5.8,-,N/A,,Partly Cloudy,0,2012-10-07 10:50:00
2:20 PM,77.0,60.8,57,29.98,6.2,South,6.9,-,N/A,,Partly Cloudy,180,2012-10-07 11:20:00
2:50 PM,75.2,62.6,65,29.95,6.2,South,6.9,-,N/A,,Partly Cloudy,170,2012-10-07 11:50:00
3:20 PM,77.0,62.6,61,29.95,6.2,SSE,5.8,-,N/A,,Partly Cloudy,160,2012-10-07 12:20:00
3:50 PM,77.0,60.8,57,29.92,6.2,South,5.8,-,N/A,,Partly Cloudy,190,2012-10-07 12:50:00
4:20 PM,77.0,60.8,57,29.92,6.2,South,4.6,-,N/A,,Partly Cloudy,170,2012-10-07 13:20:00
4:50 PM,75.2,62.6,65,29.89,6.2,South,8.1,-,N/A,,Partly Cloudy,170,2012-10-07 13:50:00
5:20 PM,75.2,62.6,65,29.89,6.2,SSW,5.8,-,N/A,,Partly Cloudy,200,2012-10-07 14:20:00
5:50 PM,73.4,60.8,65,29.89,-9999.0,South,6.9,-,N/A,,Clear,190,2012-10-07 14:50:00
6:20 PM,71.6,60.8,69,29.89,-9999.0,South,5.8,-,N/A,,Clear,190,2012-10-07 15:20:00
6:50 PM,68.0,60.8,78,29.89,-9999.0,SW,5.8,-,N/A,,Clear,230,2012-10-07 15:50:00
7:20 PM,66.2,59.0,78,29.89,-9999.0,WSW,5.8,-,N/A,,Clear,250,2012-10-07 16:20:00
7:50 PM,66.2,59.0,78,29.89,-9999.0,West,3.5,-,N/A,,Clear,280,2012-10-07 16:50:00
8:20 PM,64.4,59.0,83,29.89,-9999.0,NNW,2.3,-,N/A,,Clear,330,2012-10-07 17:20:00
8:50 PM,64.4,60.8,88,29.89,-9999.0,Calm,Calm,-,N/A,,Clear,0,2012-10-07 17:50:00
9:20 PM,62.6,59.0,88,29.89,-9999.0,Variable,1.2,-,N/A,,Clear,0,2012-10-07 18:20:00
9:50 PM,60.8,57.2,88,29.89,-9999.0,Variable,1.2,-,N/A,,Clear,0,2012-10-07 18:50:00
10:20 PM,62.6,59.0,88,29.89,-9999.0,Variable,1.2,-,N/A,,Clear,0,2012-10-07 19:20:00
10:50 PM,60.8,57.2,88,29.89,-9999.0,West,2.3,-,N/A,,Clear,270,2012-10-07 19:50:00
11:20 PM,59.0,57.2,94,29.89,-9999.0,West,4.6,-,N/A,,Clear,260,2012-10-07 20:20:00
11:50 PM,60.8,60.8,100,29.86,-9999.0,WNW,3.5,-,N/A,,Clear,290,2012-10-07 20:50:00